TimeEST,TemperatureF,Dew PointF,Humidity,Sea Level PressureIn,VisibilityMPH,Wind Direction,Wind SpeedMPH,Gust SpeedMPH,PrecipitationIn,Events,Conditions,WindDirDegrees,DateUTC
12:43 AM,33.8,33.8,100,29.89,0.2,Calm,Calm,-,N/A,Fog,Fog,0,2012-12-09 05:43:00
12:53 AM,34.0,34.0,100,29.91,0.2,Calm,Calm,-,N/A,Fog,Fog,0,2012-12-09 05:53:00
1:16 AM,35.6,33.8,93,29.91,0.5,WSW,4.6,-,N/A,Fog,Fog,240,2012-12-09 06:16:00
1:53 AM,35.1,34.0,96,29.95,0.5,SW,5.8,-,N/A,Fog,Fog,230,2012-12-09 06:53:00
2:26 AM,33.8,33.8,100,29.94,0.2,WSW,4.6,-,N/A,Fog,Fog,250,2012-12-09 07:26:00
2:53 AM,35.1,34.0,96,29.98,0.2,West,4.6,-,N/A,Fog,Fog,270,2012-12-09 07:53:00
3:19 AM,33.8,33.8,100,29.97,0.2,Calm,Calm,-,N/A,Fog,Fog,0,2012-12-09 08:19:00
3:46 AM,33.8,32.0,93,29.98,0.5,North,3.5,-,N/A,Fog,Fog,350,2012-12-09 08:46:00
3:53 AM,33.1,32.0,96,30.00,0.2,NNW,3.5,-,N/A,Fog,Fog,340,2012-12-09 08:53:00
4:04 AM,33.8,32.0,93,29.99,0.8,NW,4.6,-,N/A,,Mist,310,2012-12-09 09:04:00
4:06 AM,33.8,33.8,100,29.99,1.5,Variable,3.5,-,N/A,,Scattered Clouds,0,2012-12-09 09:06:00
4:08 AM,33.8,33.8,100,29.99,3.0,Calm,Calm,-,N/A,,Scattered Clouds,0,2012-12-09 09:08:00
4:53 AM,35.1,33.1,92,30.03,10.0,WNW,8.1,-,N/A,,Clear,300,2012-12-09 09:53:00
5:53 AM,37.0,32.0,82,30.08,10.0,WNW,5.8,-,N/A,,Clear,290,2012-12-09 10:53:00
6:53 AM,37.9,30.9,76,30.12,10.0,West,8.1,-,N/A,,Mostly Cloudy,280,2012-12-09 11:53:00
7:53 AM,39.0,30.0,70,30.17,10.0,WNW,9.2,-,N/A,,Partly Cloudy,290,2012-12-09 12:53:00
8:53 AM,39.0,28.9,67,30.21,10.0,NW,12.7,19.6,N/A,,Partly Cloudy,310,2012-12-09 13:53:00
9:53 AM,41.0,27.0,57,30.23,10.0,WNW,8.1,-,N/A,,Partly Cloudy,300,2012-12-09 14:53:00
10:53 AM,41.0,26.1,55,30.23,10.0,WNW,8.1,-,N/A,,Clear,290,2012-12-09 15:53:00
11:53 AM,43.0,25.0,49,30.22,10.0,NNW,12.7,-,N/A,,Clear,330,2012-12-09 16:53:00
12:53 PM,43.0,25.0,49,30.22,10.0,North,9.2,-,N/A,,Clear,360,2012-12-09 17:53:00
1:53 PM,43.0,24.1,47,30.22,10.0,NNW,9.2,-,N/A,,Clear,340,2012-12-09 18:53:00
2:53 PM,42.1,21.9,45,30.25,10.0,NW,9.2,-,N/A,,Clear,320,2012-12-09 19:53:00
3:53 PM,39.9,21.9,49,30.28,10.0,NW,6.9,-,N/A,,Clear,320,2012-12-09 20:53:00
4:53 PM,36.0,21.9,57,30.31,10.0,NNW,4.6,-,N/A,,Partly Cloudy,330,2012-12-09 21:53:00
5:53 PM,35.1,23.0,61,30.33,10.0,NNW,5.8,-,N/A,,Overcast,340,2012-12-09 22:53:00
6:53 PM,34.0,23.0,64,30.33,10.0,NE,5.8,-,N/A,,Partly Cloudy,40,2012-12-09 23:53:00
7:53 PM,33.1,23.0,66,30.33,10.0,NE,6.9,-,N/A,,Clear,50,2012-12-10 00:53:00
8:53 PM,32.0,23.0,69,30.32,10.0,East,4.6,-,N/A,,Clear,80,2012-12-10 01:53:00
9:53 PM,32.0,24.1,73,30.30,10.0,NE,5.8,-,N/A,,Mostly Cloudy,50,2012-12-10 02:53:00
10:53 PM,30.9,24.1,76,30.28,10.0,NNE,4.6,-,N/A,,Overcast,30,2012-12-10 03:53:00
11:53 PM,32.0,23.0,69,30.25,10.0,NE,5.8,-,N/A,,Overcast,50,2012-12-10 04:53:00